Tracking 34138 objects as of 15-May-2026
HD Live streaming from Space Station
objects crossing your sky now

STARLINK-36906

Track STARLINK-36906 now!
10-day predictions
STARLINK-36906 is classified as:


NORAD ID: 68036
Int'l Code: 2026-040Y
Perigee: 471.8 km
Apogee: 473.9 km
Inclination: 97.3 °
Period: 93.9 minutes
Semi major axis: 6843 km
RCS: Unknown
Launch date: March 1, 2026
Source: United States (US)
Launch site: AIR FORCE WESTERN TEST RANGE (AFWTR)
Your satellite tracking list
Your tracking list is empty




NASA's NSSDC Master Catalog

Two Line Element Set (TLE):
1 68036U 26040Y   26135.25002315  .00090762  00000-0  27845-2 0  9992
2 68036  97.2848  84.4446 0001565  96.7584   7.9002 15.33393899  5858
Source of the keplerian elements: AFSPC